FW6490 Weather Reports


time (UTC)temp
C
wind
direction
speed
KPH
gust
KPH
rain 1hr
cm
rain 24hr
cm
rain mn
cm
humidity
%
barometer
mb
20260903062357 16 328 3.2 6.4 0.00 0.00 0.00 90 1011.2
20260903061858 16 329 3.2 6.4 0.00 0.00 0.00 90 1011.2
20260903061355 16 329 3.2 6.4 0.00 0.00 0.00 90 1011.3
20260903060851 16 329 3.2 8.0 0.00 0.00 0.00 90 1011.3
20260903060350 16 329 3.2 8.0 0.00 0.00 0.00 90 1011.3
20260903055847 16 289 4.8 9.7 0.00 0.00 0.00 90 1011.3
20260903054847 16 331 3.2 9.7 0.00 0.00 0.00 90 1011.3
20260903053846 16 342 3.2 6.4 0.00 0.00 0.00 90 1011.4
20260903053345 16 342 3.2 6.4 0.00 0.00 0.00 90 1011.4
20260903052846 16 342 3.2 6.4 0.00 0.00 0.00 90 1011.3
20260903052340 16 342 1.6 6.4 0.00 0.00 0.00 89 1011.3
20260903051837 17 342 1.6 6.4 0.00 0.00 0.00 89 1011.3
20260903051334 17 342 1.6 6.4 0.00 0.00 0.00 89 1011.3
20260903050835 17 343 1.6 9.7 0.00 0.00 0.00 89 1011.3
20260903045833 17 319 3.2 8.0 0.00 0.00 0.00 89 1011.2
20260903044332 17 319 3.2 8.0 0.00 0.00 0.00 88 1011.2
20260903042832 17 319 3.2 6.4 0.00 0.00 0.00 88 1011.1
20260903042328 17 319 3.2 8.0 0.00 0.00 0.00 88 1011.1
20260903041828 17 321 4.8 11.3 0.00 0.00 0.00 88 1011.1
20260903041325 17 321 3.2 11.3 0.00 0.00 0.00 88 1011.1
20260903040825 17 310 3.2 8.0 0.00 0.00 0.00 88 1011.1
20260903040324 17 274 3.2 16.1 0.00 0.00 0.00 88 1011.1
20260903035821 17 270 4.8 16.1 0.00 0.00 0.00 88 1010.9
20260903035320 17 302 6.4 12.9 0.00 0.00 0.00 88 1010.9
20260903034820 17 265 4.8 12.9 0.00 0.00 0.00 88 1010.9
20260903034320 17 284 4.8 14.5 0.00 0.00 0.00 87 1010.7
20260903033818 17 305 4.8 14.5 0.00 0.00 0.00 87 1010.7
20260903033320 17 277 4.8 11.3 0.00 0.00 0.00 87 1010.7
20260903032816 17 278 4.8 11.3 0.00 0.00 0.00 86 1010.6
20260903032315 17 279 3.2 11.3 0.00 0.00 0.00 86 1010.6
20260903030807 17 271 4.8 9.7 0.00 0.00 0.00 85 1010.6
20260903030305 17 318 4.8 9.7 0.00 0.00 0.00 85 1010.6
20260903025805 17 275 3.2 9.7 0.00 0.00 0.00 84 1010.6
20260903025306 17 313 3.2 9.7 0.00 0.00 0.00 84 1010.6
20260903024804 18 313 4.8 12.9 0.00 0.00 0.00 84 1010.6
20260903024300 18 269 4.8 12.9 0.00 0.00 0.00 83 1010.6
20260903023757 18 275 4.8 11.3 0.00 0.00 0.00 83 1010.6
20260903023257 18 304 4.8 12.9 0.00 0.00 0.00 82 1010.6
20260903022756 18 318 4.8 12.9 0.00 0.00 0.00 82 1010.6
20260903021750 18 305 4.8 11.3 0.00 0.00 0.00 81 1010.6
20260903021247 18 294 6.4 17.7 0.00 0.00 0.00 80 1010.7
20260903020744 18 263 6.4 17.7 0.00 0.00 0.00 80 1010.7
20260903020245 18 266 6.4 16.1 0.00 0.00 0.00 79 1010.7
20260903015741 18 283 6.4 16.1 0.00 0.00 0.00 78 1010.7
20260903014737 19 305 4.8 16.1 0.00 0.00 0.00 76 1010.7
20260903014235 19 280 6.4 16.1 0.00 0.00 0.00 75 1010.7
20260903013735 20 289 6.4 12.9 0.00 0.00 0.00 75 1010.7
20260903012234 21 323 8.0 16.1 0.00 0.00 0.00 71 1010.7
20260903011734 21 331 6.4 16.1 0.00 0.00 0.00 69 1010.7
20260903011231 21 309 6.4 14.5 0.00 0.00 0.00 68 1010.8
20260903010735 21 301 6.4 14.5 0.00 0.00 0.00 69 1010.8
20260903010231 21 300 8.0 14.5 0.00 0.00 0.00 69 1010.8
20260903005730 22 309 8.0 16.1 0.00 0.00 0.00 69 1010.8
20260903005227 22 310 8.0 16.1 0.00 0.00 0.00 68 1010.8
20260903004725 22 266 6.4 14.5 0.00 0.00 0.00 68 1010.8
20260903004224 22 314 6.4 14.5 0.00 0.00 0.00 67 1010.9
20260903003726 22 311 6.4 14.5 0.00 0.00 0.00 67 1010.9
20260903002721 22 305 8.0 19.3 0.00 0.00 0.00 67 1010.9
20260903002219 22 346 8.0 20.9 0.00 0.00 0.00 67 1010.9
20260903001717 22 346 8.0 20.9 0.00 0.00 0.00 67 1011.0
20260903000718 22 313 6.4 14.5 0.00 0.00 0.00 68 1010.9
20260902235709 21 302 9.7 20.9 0.00 0.00 0.00 68 1011.0
20260902235207 22 297 9.7 20.9 0.00 0.00 0.00 65 1011.0
20260902234704 22 294 9.7 20.9 0.00 0.00 0.00 65 1011.0
20260902234206 22 288 9.7 19.3 0.00 0.00 0.00 66 1011.1
20260902233702 22 256 9.7 19.3 0.00 0.00 0.00 65 1011.1
20260902233202 22 288 9.7 22.5 0.00 0.00 0.00 63 1011.2
20260902232157 23 318 9.7 22.5 0.00 0.00 0.00 60 1011.3
20260902231655 23 306 8.0 19.3 0.00 0.00 0.00 59 1011.3
20260902231154 24 295 8.0 22.5 0.00 0.00 0.00 58 1011.4
20260902230654 24 331 8.0 22.5 0.00 0.00 0.00 58 1011.4
20260902225654 25 331 6.4 17.7 0.00 0.00 0.00 57 1011.6
20260902224147 23 315 8.0 16.1 0.00 0.00 0.00 59 1011.7
20260902223645 23 306 9.7 20.9 0.00 0.00 0.00 60 1011.7
20260902222640 23 282 9.7 24.1 0.00 0.00 0.00 57 1011.8
20260902222137 24 309 8.0 20.9 0.00 0.00 0.00 56 1011.8
20260902221132 24 325 8.0 17.7 0.00 0.00 0.00 57 1011.9
20260902220631 24 311 9.7 19.3 0.00 0.00 0.00 57 1011.9
20260902220128 23 313 9.7 22.5 0.00 0.00 0.00 58 1011.9
20260902215625 23 298 8.0 22.5 0.00 0.00 0.00 59 1011.9
20260902214621 23 312 8.0 20.9 0.00 0.00 0.00 59 1011.9
20260902214125 24 326 6.4 17.7 0.00 0.00 0.00 57 1011.8
20260902213616 24 296 8.0 17.7 0.00 0.00 0.00 57 1011.8
20260902212612 25 103 6.4 17.7 0.00 0.00 0.00 55 1011.9
20260902212109 25 338 8.0 20.9 0.00 0.00 0.00 56 1011.9
20260902211608 25 339 8.0 20.9 0.00 0.00 0.00 55 1011.9
20260902211109 25 333 8.0 17.7 0.00 0.00 0.00 55 1011.9
20260902210609 25 333 6.4 16.1 0.00 0.00 0.00 55 1011.9
20260902210106 25 333 6.4 16.1 0.00 0.00 0.00 55 1011.9
20260902205606 25 321 6.4 19.3 0.00 0.00 0.00 56 1011.9
20260902205101 25 5 8.0 19.3 0.00 0.00 0.00 55 1011.9
20260902204607 25 313 6.4 16.1 0.00 0.00 0.00 56 1011.9
20260902204103 25 345 6.4 16.1 0.00 0.00 0.00 56 1011.9
20260902203559 25 305 8.0 16.1 0.00 0.00 0.00 55 1011.9
20260902203058 25 313 8.0 16.1 0.00 0.00 0.00 56 1011.9
20260902202556 25 346 8.0 17.7 0.00 0.00 0.00 55 1012.0
20260902202055 24 335 8.0 17.7 0.00 0.00 0.00 56 1012.0
20260902201556 25 348 8.0 17.7 0.00 0.00 0.00 55 1012.0
20260902201050 25 320 8.0 17.7 0.00 0.00 0.00 55 1012.1
20260902200549 25 283 6.4 16.1 0.00 0.00 0.00 54 1012.1
20260902195550 24 322 8.0 14.5 0.00 0.00 0.00 53 1012.0
20260902194547 24 325 8.0 17.7 0.00 0.00 0.00 53 1012.0
20260902194049 25 311 8.0 17.7 0.00 0.00 0.00 52 1012.0
20260902193544 24 345 8.0 16.1 0.00 0.00 0.00 53 1012.0
20260902193042 24 336 8.0 14.5 0.00 0.00 0.00 53 1012.0
20260902192540 25 315 8.0 16.1 0.00 0.00 0.00 51 1012.2
20260902192039 25 323 8.0 16.1 0.00 0.00 0.00 51 1012.2
20260902191539 24 310 8.0 14.5 0.00 0.00 0.00 52 1012.2
20260902191038 25 309 6.4 12.9 0.00 0.00 0.00 49 1012.4
20260902190035 25 346 6.4 12.9 0.00 0.00 0.00 49 1012.4
20260902185529 25 342 6.4 14.5 0.00 0.00 0.00 49 1012.4
20260902185030 25 325 6.4 16.1 0.00 0.00 0.00 49 1012.4
20260902184533 25 351 6.4 16.1 0.00 0.00 0.00 49 1012.4
20260902183527 25 325 6.4 17.7 0.00 0.00 0.00 48 1012.5
20260902183029 24 0 6.4 17.7 0.00 0.00 0.00 49 1012.5
20260902182525 24 344 6.4 16.1 0.00 0.00 0.00 49 1012.4
20260902182025 24 318 6.4 14.5 0.00 0.00 0.00 49 1012.4
20260902181522 23 320 6.4 14.5 0.00 0.00 0.00 49 1012.4
20260902181023 24 310 4.8 14.5 0.00 0.00 0.00 49 1012.5
20260902180522 23 333 4.8 11.3 0.00 0.00 0.00 51 1012.5
20260902180020 23 340 4.8 9.7 0.00 0.00 0.00 51 1012.5
20260902175518 23 309 4.8 9.7 0.00 0.00 0.00 51 1012.5
20260902175021 23 329 4.8 14.5 0.00 0.00 0.00 52 1012.4
20260902174519 22 317 4.8 14.5 0.00 0.00 0.00 52 1012.4
20260902174017 23 318 4.8 9.7 0.00 0.00 0.00 52 1012.4
20260902173009 22 325 3.2 9.7 0.00 0.00 0.00 53 1012.3
20260902172006 22 325 6.4 11.3 0.00 0.00 0.00 53 1012.3
20260902171504 22 327 4.8 11.3 0.00 0.00 0.00 55 1012.3
20260902171000 21 268 4.8 11.3 0.00 0.00 0.00 55 1012.3
20260902170457 21 329 6.4 14.5 0.00 0.00 0.00 57 1012.3
20260902165957 21 286 4.8 14.5 0.00 0.00 0.00 57 1012.3
20260902164456 21 334 4.8 14.5 0.00 0.00 0.00 62 1012.3
20260902163953 21 350 3.2 14.5 0.00 0.00 0.00 63 1012.2
20260902162951 20 347 3.2 6.4 0.00 0.00 0.00 67 1012.2
20260902162447 20 312 1.6 6.4 0.00 0.00 0.00 67 1012.2
20260902161942 19 309 1.6 6.4 0.00 0.00 0.00 69 1012.2
20260902160937 18 309 0.0 0.0 0.00 0.00 0.00 77 1012.2
20260902160430 17 309 0.0 0.0 0.00 0.00 0.00 80 1012.2
20260902155924 17 309 0.0 0.0 0.00 0.00 0.00 81 1012.2
20260902155423 17 309 0.0 0.0 0.00 0.00 0.00 81 1012.2
20260902154918 16 309 0.0 0.0 0.00 0.00 0.00 82 1012.2
20260902153915 16 309 0.0 0.0 0.00 0.00 0.00 83 1012.1
20260902152410 15 309 0.0 0.0 0.00 0.00 0.00 86 1012.1
20260902151906 15 309 0.0 0.0 0.00 0.00 0.00 87 1012.1
20260902151400 15 309 0.0 0.0 0.00 0.00 0.00 88 1012.1
20260902150858 15 309 0.0 3.2 0.00 0.00 0.00 89 1012.2
20260902150356 15 309 0.0 3.2 0.00 0.00 0.00 90 1012.2
20260902145857 14 309 0.0 3.2 0.00 0.00 0.00 91 1012.2
20260902145355 13 309 0.0 1.6 0.00 0.00 0.00 92 1012.2
20260902144358 13 309 0.0 3.2 0.00 0.00 0.00 93 1011.7
20260902143851 13 309 0.0 1.6 0.00 0.00 0.00 93 1011.7
20260902143348 12 309 0.0 0.0 0.00 0.00 0.00 94 1011.7
20260902142847 12 309 0.0 0.0 0.00 0.00 0.00 95 1011.6
20260902142348 11 309 0.0 0.0 0.00 0.00 0.00 95 1011.6
20260902140846 11 309 0.0 0.0 0.00 0.00 0.00 94 1011.5
20260902140339 11 309 0.0 0.0 0.00 0.00 0.00 94 1011.5
20260902135837 11 309 0.0 0.0 0.00 0.00 0.00 93 1011.6
20260902135336 11 309 0.0 3.2 0.00 0.00 0.00 94 1011.6
20260902134836 11 309 0.0 3.2 0.00 0.00 0.00 94 1011.6
20260902133836 11 309 1.6 3.2 0.00 0.00 0.00 93 1011.7
20260902133337 11 309 1.6 4.8 0.00 0.00 0.00 94 1011.7
20260902132834 12 309 1.6 4.8 0.00 0.00 0.00 94 1011.7
20260902132333 12 309 1.6 4.8 0.00 0.00 0.00 94 1011.7
20260902131832 12 309 1.6 4.8 0.00 0.00 0.00 94 1011.7
20260902131332 12 309 1.6 4.8 0.00 0.00 0.00 94 1011.6
20260902130828 11 309 1.6 6.4 0.00 0.00 0.00 94 1011.6
20260902125829 11 309 1.6 6.4 0.00 0.00 0.00 94 1011.7
20260902125327 11 309 1.6 4.8 0.00 0.00 0.00 93 1011.7
20260902124827 11 309 3.2 4.8 0.00 0.00 0.00 93 1011.7
20260902124325 11 309 3.2 6.4 0.00 0.00 0.00 93 1011.8
20260902123321 11 309 0.0 3.2 0.00 0.00 0.00 92 1011.8
20260902122819 11 309 0.0 3.2 0.00 0.00 0.00 93 1011.8
20260902121813 11 309 0.0 3.2 0.00 0.00 0.00 93 1011.8
20260902121310 11 309 0.0 0.0 0.00 0.00 0.00 92 1011.7
20260902120807 11 309 0.0 0.0 0.00 0.00 0.00 93 1011.7
20260902120307 11 309 0.0 0.0 0.00 0.00 0.00 92 1011.7
20260902115807 11 309 0.0 0.0 0.00 0.00 0.00 93 1011.9
20260902115308 11 309 0.0 0.0 0.00 0.00 0.00 92 1011.9
20260902114804 11 309 0.0 0.0 0.00 0.00 0.00 92 1011.9
20260902113804 11 309 0.0 0.0 0.00 0.00 0.00 92 1011.7
20260902113300 11 309 0.0 0.0 0.00 0.00 0.00 92 1011.7
20260902112756 11 309 0.0 0.0 0.00 0.00 0.00 93 1011.6
20260902112248 11 309 0.0 0.0 0.00 0.00 0.00 92 1011.6
20260902111746 11 309 0.0 0.0 0.00 0.00 0.00 92 1011.6
20260902111246 11 309 0.0 0.0 0.00 0.00 0.00 93 1011.5
20260902110745 11 309 0.0 0.0 0.00 0.00 0.00 93 1011.5
20260902110244 11 309 0.0 0.0 0.00 0.00 0.00 93 1011.5
20260902105738 11 309 0.0 0.0 0.00 0.00 0.00 92 1011.5
20260902105237 11 309 0.0 0.0 0.00 0.00 0.00 93 1011.5
20260902104733 11 309 0.0 0.0 0.00 0.00 0.00 93 1011.5
20260902104228 11 309 0.0 0.0 0.00 0.00 0.00 93 1011.4
20260902103727 11 309 0.0 0.0 0.00 0.00 0.00 93 1011.4
20260902103225 11 309 0.0 0.0 0.00 0.00 0.00 93 1011.4
20260902102728 11 309 0.0 0.0 0.00 0.00 0.00 93 1011.5
20260902102220 12 309 0.0 0.0 0.00 0.00 0.00 93 1011.5
20260902101720 12 309 0.0 0.0 0.00 0.00 0.00 93 1011.5
20260902101220 11 309 0.0 0.0 0.00 0.00 0.00 93 1011.5
20260902100718 11 309 0.0 0.0 0.00 0.00 0.00 93 1011.5
20260902100210 11 309 0.0 0.0 0.00 0.00 0.00 93 1011.5
20260902095708 11 309 0.0 0.0 0.00 0.00 0.00 93 1011.7
20260902095205 11 309 0.0 0.0 0.00 0.00 0.00 93 1011.7
20260902094708 11 309 0.0 0.0 0.00 0.00 0.00 93 1011.7
20260902094201 11 309 0.0 0.0 0.00 0.00 0.00 93 1011.8
20260902093659 11 309 0.0 0.0 0.00 0.00 0.00 93 1011.8
20260902093157 11 309 0.0 0.0 0.00 0.00 0.00 93 1011.8
20260902092656 11 309 0.0 0.0 0.00 0.00 0.00 93 1011.8
20260902091655 11 309 0.0 0.0 0.00 0.00 0.00 93 1011.8
20260902091150 11 309 0.0 0.0 0.00 0.00 0.00 92 1011.9
20260902090650 11 309 0.0 0.0 0.00 0.00 0.00 92 1011.9
20260902090152 11 309 0.0 0.0 0.00 0.00 0.00 92 1011.9
20260902085647 11 309 0.0 0.0 0.00 0.00 0.00 92 1012.0
20260902084637 11 309 0.0 0.0 0.00 0.00 0.00 92 1012.0
20260902084134 11 309 0.0 0.0 0.00 0.00 0.00 92 1012.0
20260902083629 11 309 0.0 0.0 0.00 0.00 0.00 92 1012.0
20260902083130 11 309 0.0 0.0 0.00 0.00 0.00 92 1012.0
20260902082626 12 309 0.0 0.0 0.00 0.00 0.00 92 1012.0
20260902082124 12 309 0.0 0.0 0.00 0.00 0.00 92 1012.0
20260902081621 12 309 0.0 0.0 0.00 0.00 0.00 92 1012.0
20260902081123 12 309 0.0 0.0 0.00 0.00 0.00 92 1011.6
20260902080618 12 309 0.0 0.0 0.00 0.00 0.00 92 1011.6
20260902080112 12 309 0.0 0.0 0.00 0.00 0.00 92 1011.6
20260902075112 12 309 0.0 0.0 0.00 0.00 0.00 92 1011.6
20260902074606 12 309 0.0 0.0 0.00 0.00 0.00 91 1011.6
20260902074106 12 309 0.0 0.0 0.00 0.00 0.00 91 1011.6
20260902073609 12 309 0.0 0.0 0.00 0.00 0.00 91 1011.6
20260902073104 12 309 0.0 0.0 0.00 0.00 0.00 91 1011.6
20260902072606 12 309 0.0 0.0 0.00 0.00 0.00 91 1011.6
20260902072059 12 309 0.0 0.0 0.00 0.00 0.00 91 1011.6
20260902071557 12 309 0.0 0.0 0.00 0.00 0.00 91 1011.6
20260902071056 13 309 0.0 0.0 0.00 0.00 0.00 91 1011.6
20260902070059 13 309 0.0 0.0 0.00 0.00 0.00 91 1011.6
20260902065556 13 309 0.0 0.0 0.00 0.00 0.00 90 1011.6
20260902065050 13 309 0.0 0.0 0.00 0.00 0.00 90 1011.6
20260902064544 13 309 0.0 0.0 0.00 0.00 0.00 90 1011.6
20260902063543 13 309 0.0 0.0 0.00 0.00 0.00 90 1011.6